Regional Weather Roundup
Issued by NWS

Home | Current Version | Previous Version | Graphics & Text | Print | Product List | Glossary On
Versions: 1 2 3 4 5 6 7 8 9 10 11 12 13 14 15 16 17 18 19 20 21 22 23 24 25 26 27 28 29 30 31 32 33 34 35 36 37 38 39 40 41 42 43 44 45 46 47 48 49 50
000
ASUS43 KDMX 250403
RWRIA

WEATHER ROUNDUP FOR IOWA
NATIONAL WEATHER SERVICE DES MOINES IA
1100 PM CDT TUE MAY 24 2016

NOTE: "FAIR" INDICATES FEW OR NO CLOUDS BELOW 12,000 FEET WITH NO
SIGNIFICANT WEATHER AND/OR OBSTRUCTIONS TO VISIBILITY.

* - THESE STATIONS ARE NOT NWS STATIONS...THUS NOT UNDER NWS
QUALITY CONTROL.  THEY ALSO DO NOT REPORT WEATHER SUCH
AS PRECIPITATION OR FOG.

IAZ001>003-012>014-020>022-031>034-043>046-250500-
   NORTHWEST IOWA

CITY           SKY/WX    TMP DP  RH WIND       PRES   REMARKS
CARROLL *      CLEAR     68  66  94 SE7       29.89S
CHEROKEE *     CLEAR     69  65  86 SE7       29.87F
DENISON *      CLEAR     68  61  77 SE7       29.86S
LE MARS *      CLEAR     70  64  83 SE6       29.85F
ORANGE CITY *  CLEAR     70  64  83 SE5       29.87S
SHELDON *      CLEAR     70  63  78 SE13      29.86F
SIOUX CITY     CLEAR     69  64  84 SE6       29.84F
SPENCER        CLEAR     68  61  78 SE8       29.89S
STORM LAKE *   CLEAR     68  63  83 SE7       29.89F
$$

IAZ055>058-069>071-079>083-090>094-250500-
   SOUTHWEST IOWA

CITY           SKY/WX    TMP DP  RH WIND       PRES   REMARKS
ATLANTIC *     PTCLDY    72  63  73 S3        29.88S
AUDUBON *      CLOUDY    66  61  82 CALM      29.90F
CLARINDA *       N/A     70  66  88 MISG      29.90R
COUNCIL BLFS * CLEAR     70  64  83 S9        29.89R
CRESTON *      CLOUDY    66  61  82 SE8       29.92S
HARLAN  *        N/A    N/A N/A N/A MISG        N/A
LAMONI           N/A     67  64  90 SE8       29.91S
RED OAK *      CLOUDY    70  63  78 S6        29.89R
SHENANDOAH *   CLOUDY    70  66  88 SE6       29.89R
$$

IAZ047>049-059>061-072>074-084-250500-
   CENTRAL IOWA

CITY           SKY/WX    TMP DP  RH WIND       PRES   REMARKS
AMES           CLEAR     66  62  87 SE5       29.90R
ANKENY *       CLEAR     70  64  83 SE6       29.90S
BOONE *        CLEAR     68  63  83 SE6       29.89S
CHARITON *     CLEAR     68  63  83 SE6       29.92S
DES MOINES     PTCLDY    72  61  68 SE8       29.90S
GRINNELL*      CLEAR     70  63  78 S6        29.93S
KNOXVILLE *    CLEAR     70  63  78 S7        29.91S
MARSHALLTOWN   CLEAR     69  61  75 S8        29.91R
NEWTON *       CLEAR     70  66  88 S8        29.92R
PELLA *        CLEAR     69  63  80 S5        29.93S
PERRY *          N/A     68  64  88 SE8       29.89S
$$

IAZ004>006-015-016-023>025-035-036-250500-
   NORTH CENTRAL IOWA

CITY           SKY/WX    TMP DP  RH WIND       PRES   REMARKS
ALGONA *       CLEAR     68  61  77 SE5       29.90F
CLARION *      CLEAR     68  66  94 SE5       29.91R
ESTHERVILLE    CLEAR     68  60  75 S9        29.89F
FORT DODGE *   CLEAR     64  59  82 CALM      29.90S
MASON CITY     CLEAR     65  61  87 CALM      29.92S
FOREST CITY *  CLEAR     61  61 100 CALM      29.91S
WEBSTER CITY * CLEAR     68  64  88 SE7       29.89R
IOWA FALLS *     N/A     70  59  68 S5        29.92S
$$

IAZ007>011-017>019-026>030-037>042-050>054-066-250500-
   NORTHEAST IOWA

CITY           SKY/WX    TMP DP  RH WIND       PRES   REMARKS
CEDAR RAPIDS   CLEAR     69  65  86 S7        29.92S
CHARLES CITY * CLEAR     70  61  73 CALM      29.92S
CLINTON *      CLOUDY    71  62  73 SW10      29.94S
DECORAH *      CLEAR     72  61  68 E7        29.92S
DUBUQUE        PTCLDY    70  59  68 SE3       29.94F HAZE
MONTICELLO *   PTCLDY    70  63  78 SE5       29.92F
OELWEIN *      PTCLDY    70  61  73 E6        29.92F
WATERLOO       CLEAR     68  60  75 E5        29.89F
$$

IAZ064-065-067-068-078-250500-
   EAST CENTRAL IOWA

CITY           SKY/WX    TMP DP  RH WIND       PRES   REMARKS
DAVENPORT      CLOUDY    74  62  66 S9        29.95R
IOWA CITY      CLEAR     73  64  73 S5        29.94S
MT. PLEASANT * CLEAR     70  64  83 SE5       29.95S
MUSCATINE *    CLOUDY    72  64  78 S6        29.93F
QUAD CITIES    CLOUDY    74  62  66 SW7       29.93S
$$

IAZ062-063-075>077-085>089-095>099-250500-
   SOUTHEAST IOWA

CITY           SKY/WX    TMP DP  RH WIND       PRES   REMARKS
BURLINGTON     CLOUDY    68  63  84 S3        29.95S
FAIRFIELD *      N/A    N/A N/A N/A MISG        N/A
FORT MADISON * CLOUDY    68  64  88 S5        29.96S
KEOKUK *       CLOUDY    70  64  83 S5        29.94F
OSKALOOSA *      N/A     68  63  83 S8        29.93S
OTTUMWA        CLEAR     68  63  84 S6        29.93S
WASHINGTON *   CLEAR     68  64  88 S5        29.95S
$$

ABBREVIATIONS USED IN REMARKS
   TC - TEMPERATURES IN CELSIUS
  WCI - WIND CHILL INDEX
   HX - HEAT INDEX
  VSB - VISIBILITY
$$





USA.gov is the U.S. government's official web portal to all federal, state and local government web resources and services.